Regional Weather Roundup
Issued by NWS Midland/Odessa, TX

Skip options and go directly to product.
Home | Oldest Version | Next Version | Current Version | All | Text Only | Save Text | Print | Product List | Glossary On

Skip product version selection by date and time.   
885
ASUS44 KMAF 220401
RWRMAF
MIDLAND AREA WEATHER ROUNDUP
NATIONAL WEATHER SERVICE MIDLAND TX
1100 PM CDT THU MAY 21 2015

...IN SOUTHWEST TEXAS AND SOUTHEAST NEW MEXICO...

CITY           SKY/WX    TMP DP  RH WIND       PRES   REMARKS
ALPINE         CLOUDY    55  54  97 N6        30.16R
ANDREWS        LGT RAIN  53  53 100 E13       30.12F
ARTESIA        DRIZZLE   52  52 100 NE5       30.18F
BIG SPRING     CLOUDY    59  54  83 E12       30.15R
CARLSBAD       LGT RAIN  54  52  93 N3        30.15R FOG
DRYDEN           N/A     64  62  93 N8        30.08R
FORT STOCKTON  CLOUDY    57  56  96 E9        30.07R
GUAD PASS      LGT RAIN  47  47 100 NE25      30.16R VSB 1/4 WCI  39
HOBBS          CLOUDY    50  50 100 E5        30.17R FOG
MARFA          MOCLDY    54  52  94 E6        30.14R
MIDLAND AIRPK  DRIZZLE   56  56 100 E10       30.12F
MIDLAND INTL   CLOUDY    56  55  97 E14       30.11S FOG
ODESSA         LGT RAIN  56  54  93 E12       30.12R FOG
PECOS          CLOUDY    55  54  94 NE9       30.09F
PRESIDIO       MOCLDY    67  57  70 NE13G22   30.00R
SEMINOLE       RAIN      52  52  98 E9        30.15R
SNYDER         CLOUDY    55  54  95 E12       30.16S
WINK           CLOUDY    56  53  90 E5        30.10R FOG
$$
...OTHER STATIONS IN TEXAS...

CITY           SKY/WX    TMP DP  RH WIND       PRES   REMARKS
ABILENE        CLOUDY    59  53  80 NE6       30.16S
AMARILLO       LGT RAIN  50  48  93 SE10      30.17R
AUSTIN         CLOUDY    63  61  93 NE12      30.10S
BROWNSVILLE    CLOUDY    78  75  90 E10       29.98F
CORPUS CHRISTI MOCLDY    75  73  93 NE12      30.02R
DALLAS FTW     CLOUDY    63  57  81 E6        30.15S
DEL RIO        CLOUDY    70  67  90 CALM      30.04R
EL PASO        PTCLDY    61  52  72 E7        30.01R
HOUSTON INT    MOCLDY    71  69  93 NE6       30.09R
LUBBOCK        DRIZZLE   52  51  97 E14       30.13F
SAN ANGELO     CLOUDY    62  57  83 E9        30.12R
SAN ANTONIO    CLOUDY    67  61  81 NE10G21   30.07F
WACO           CLOUDY    62  58  86 NE10      30.14R
WICHITA FALLS  NOT AVBL
$$
...OTHER LOCATIONS IN NEW MEXICO...

CITY           SKY/WX    TMP DP  RH WIND       PRES   REMARKS
ALAMAGORDO     PTCLDY    57  50  77 SE7       30.04R
ALBUQUERQUE    CLOUDY    50  41  71 E24       30.05R
CANNON AFB     DRIZZLE   48  48 100 SE5       30.16R FOG
CLOVIS         CLOUDY    48  46  93 SE6       30.18R
HOLLOMAN AFB   PTCLDY    58  53  83 SE6       30.01R
ROSWELL        RAIN      52  50  93 E8        30.15F
RUIDOSO        CLOUDY    43  43 100 SE12      30.19F FOG     WCI  37
SANTA FE       CLOUDY    47  40  76 SE10      30.10F
TRUTH OR CONSE CLEAR     55  51  86 NE12      30.02R
TUCUMCARI      NOT AVBL
$$

USA.gov is the U.S. government's official web portal to all federal, state and local government web resources and services.